Weather History for Mankato, MN

Change the Weather History Date:

Wednesday, January 23, 2013

  Actual Average Record
Temperature  
Mean Temperature 6 °F -  
Max Temperature 14 °F 20 °F 39 °F (2006)
Min Temperature -2 °F 7 °F -16 °F (2011)
Degree Days  
Heating Degree Days 59    
Moisture  
Dew Point 1 °F    
Average Humidity 75    
Maximum Humidity 100    
Minimum Humidity 52    
Precipitation  
Precipitation 0.00 in - - ()
Sea Level Pressure  
Sea Level Pressure 30.27 in    
Wind  
Wind Speed 10 mph (WNW)    
Max Wind Speed 29 mph    
Max Gust Speed 38 mph    
Visibility 9 miles    
Events      
Averages and records for this station are not official NWS values.
T = Trace of Precipitation, MM = Missing Value Source: NWS Daily Summary

Daily Weather History Graph

Daily Weather History Graph

Search for Another Location

Airport:

Trip Planner

Search our weather history database for the weather conditions in past years. The results will help you decide how hot, cold, wet, or windy it might be!

Date:

Astronomy

Jan. 23, 2013 Rise Set
Actual Time 7:42 AM CST 5:13 PM CST
Civil Twilight 7:10 AM CST 5:45 PM CST
Nautical Twilight 6:35 AM CST 6:20 PM CST
Astronomical Twilight 6:01 AM CST 6:54 PM CST
Moon 2:22 PM CST (1/23) 4:56 AM CST (1/23)
Length of Visible Light 10h 34m
Length of Day
9h 31m
Waxing Gibbous, 89% of the Moon is Illuminated
Jan 23
Waxing Gibbous
Jan 26
Full
Feb 3
Last Quarter
Feb 10
New
Feb 17
First Quarter

Hourly Weather History & Observations

Time (CST) Temp. Windchill Dew Point Humidity Pressure Visibility Wind Dir Wind Speed Gust Speed Precip Events Conditions
12:15 AM 8.6 °F 0.1 °F 1.4 °F 73% 30.20 in 10.0 mi South 4.6 mph - N/A   Overcast
12:35 AM 10.4 °F 2.2 °F 1.4 °F 67% 30.20 in 10.0 mi South 4.6 mph - N/A   Overcast
12:55 AM 10.4 °F 0.8 °F 3.2 °F 73% 30.19 in 10.0 mi South 5.8 mph - N/A   Overcast
1:15 AM 10.4 °F 2.2 °F 3.2 °F 73% 30.19 in 8.0 mi South 4.6 mph - N/A   Overcast
1:35 AM 10.4 °F 2.2 °F 5.0 °F 79% 30.18 in 9.0 mi South 4.6 mph - N/A   Overcast
1:55 AM 10.4 °F 2.2 °F 5.0 °F 79% 30.17 in 10.0 mi South 4.6 mph - N/A   Overcast
2:15 AM 10.4 °F 4.0 °F 6.8 °F 85% 30.17 in 5.0 mi South 3.5 mph - N/A   Overcast
2:35 AM 10.4 °F 2.2 °F 6.8 °F 85% 30.17 in 7.0 mi South 4.6 mph - N/A   Overcast
2:55 AM 10.4 °F 4.0 °F 6.8 °F 85% 30.16 in 3.0 mi South 3.5 mph - N/A   Overcast
3:15 AM 12.2 °F 4.3 °F 8.6 °F 85% 30.15 in 6.0 mi South 4.6 mph - N/A   Overcast
3:35 AM 12.2 °F 4.3 °F 8.6 °F 85% 30.15 in 5.0 mi South 4.6 mph - N/A   Overcast
3:55 AM 12.2 °F 2.9 °F 8.6 °F 85% 30.14 in 9.0 mi South 5.8 mph - N/A   Overcast
4:15 AM 12.2 °F 6.1 °F 8.6 °F 85% 30.14 in 7.0 mi SSW 3.5 mph - N/A   Overcast
4:35 AM 12.2 °F - 8.6 °F 85% 30.13 in 3.0 mi Calm Calm - N/A   Overcast
4:55 AM 12.2 °F - 8.6 °F 85% 30.13 in 3.0 mi Calm Calm - N/A   Overcast
5:15 AM 12.2 °F 6.1 °F 8.6 °F 85% 30.13 in 4.0 mi South 3.5 mph - N/A   Overcast
5:35 AM 12.2 °F 6.1 °F 8.6 °F 85% 30.13 in 5.0 mi South 3.5 mph - N/A   Overcast
5:55 AM 12.2 °F 4.3 °F 8.6 °F 85% 30.13 in 7.0 mi SSW 4.6 mph - N/A   Overcast
6:15 AM 12.2 °F 4.3 °F 8.6 °F 85% 30.13 in 10.0 mi SSW 4.6 mph - N/A   Overcast
6:35 AM 12.2 °F 6.1 °F 8.6 °F 85% 30.12 in 10.0 mi SSW 3.5 mph - N/A   Overcast
6:55 AM 12.2 °F 6.1 °F 8.6 °F 85% 30.12 in 10.0 mi SSW 3.5 mph - N/A   Overcast
7:15 AM 12.2 °F - 8.6 °F 85% 30.12 in 10.0 mi Calm Calm - N/A   Overcast
7:35 AM 10.4 °F 4.0 °F 8.6 °F 92% 30.13 in 10.0 mi West 3.5 mph - N/A   Scattered Clouds
7:55 AM 10.4 °F 2.2 °F 6.8 °F 85% 30.13 in 10.0 mi West 4.6 mph - N/A   Mostly Cloudy
8:15 AM 10.4 °F 4.0 °F 6.8 °F 85% 30.14 in 10.0 mi WNW 3.5 mph - N/A   Partly Cloudy
8:35 AM 10.4 °F -0.4 °F 10.4 °F 100% 30.15 in 10.0 mi WNW 6.9 mph - N/A   Clear
8:55 AM 12.2 °F 0.7 °F 8.6 °F 85% 30.16 in 10.0 mi WNW 8.1 mph - N/A   Clear
9:15 AM 12.2 °F 0.7 °F 8.6 °F 85% 30.16 in 10.0 mi NW 8.1 mph - N/A   Clear
9:35 AM 12.2 °F 0.7 °F 8.6 °F 85% 30.16 in 10.0 mi NW 8.1 mph - N/A   Clear
9:55 AM 12.2 °F -1.0 °F 6.8 °F 79% 30.18 in 10.0 mi NW 10.4 mph - N/A   Scattered Clouds
10:15 AM 12.2 °F -3.1 °F 8.6 °F 85% 30.18 in 10.0 mi NW 13.8 mph - N/A   Overcast
10:35 AM 12.2 °F -3.7 °F 8.6 °F 85% 30.19 in 10.0 mi NW 15.0 mph - N/A   Overcast
10:55 AM 14.0 °F -2.5 °F 8.6 °F 79% 30.20 in 10.0 mi NW 17.3 mph - N/A   Overcast
11:15 AM 14.0 °F -3.4 °F 8.6 °F 79% 30.20 in 10.0 mi NW 19.6 mph 23.0 mph N/A   Overcast
11:35 AM 14.0 °F -2.0 °F 8.6 °F 79% 30.20 in 7.0 mi WNW 16.1 mph 21.9 mph N/A   Overcast
11:55 AM 14.0 °F -3.9 °F 8.6 °F 79% 30.20 in 10.0 mi WNW 20.7 mph 26.5 mph N/A   Mostly Cloudy
12:15 PM 14.0 °F -3.4 °F 6.8 °F 73% 30.20 in 10.0 mi NW 19.6 mph 24.2 mph N/A   Mostly Cloudy
12:35 PM 14.0 °F -5.5 °F 6.8 °F 73% 30.20 in 10.0 mi NW 25.3 mph 28.8 mph N/A   Mostly Cloudy
12:55 PM 12.2 °F -7.5 °F 6.8 °F 79% 30.20 in 9.0 mi NW 24.2 mph 27.6 mph N/A   Overcast
1:15 PM 12.2 °F -7.1 °F 6.8 °F 79% 30.20 in 10.0 mi NW 23.0 mph 31.1 mph N/A   Overcast
1:35 PM 12.2 °F -6.7 °F 5.0 °F 73% 30.20 in 9.0 mi NW 21.9 mph 32.2 mph N/A   Overcast
1:55 PM 12.2 °F -8.9 °F 5.0 °F 73% 30.21 in 10.0 mi NW 28.8 mph 32.2 mph N/A   Overcast
2:15 PM - - - N/A% 30.22 in 10.0 mi NW 23.0 mph 32.2 mph N/A   Overcast
2:35 PM - - - N/A% 30.23 in 10.0 mi NW 21.9 mph 29.9 mph N/A   Overcast
2:55 PM - - - N/A% 30.25 in 10.0 mi NNW 27.6 mph 33.4 mph N/A   Overcast
3:15 PM 10.4 °F -10.7 °F 1.4 °F 67% 30.27 in 10.0 mi NNW 26.5 mph 32.2 mph N/A   Overcast
3:35 PM - - - N/A% 30.28 in 10.0 mi NNW 28.8 mph 36.8 mph N/A   Scattered Clouds
3:55 PM - - - N/A% 30.29 in 10.0 mi NNW 26.5 mph 35.7 mph N/A   Clear
4:15 PM - - - N/A% 30.30 in 10.0 mi NNW 28.8 mph 38.0 mph N/A   Clear
4:35 PM - - - N/A% 30.32 in 10.0 mi NNW 28.8 mph 35.7 mph N/A   Clear
4:55 PM 5.0 °F -14.7 °F -9.4 °F 52% 30.35 in 10.0 mi NNW 18.4 mph 34.5 mph N/A   Clear
5:15 PM 3.2 °F -18.6 °F -7.6 °F 61% 30.36 in 10.0 mi NNW 21.9 mph 28.8 mph N/A   Clear
5:35 PM 3.2 °F -18.6 °F -7.6 °F 61% 30.37 in 10.0 mi NNW 21.9 mph 29.9 mph N/A   Clear
5:55 PM 3.2 °F -18.1 °F -9.4 °F 56% 30.39 in 10.0 mi NNW 20.7 mph 26.5 mph N/A   Clear
6:15 PM 1.4 °F -21.0 °F -9.4 °F 61% 30.40 in 10.0 mi NNW 21.9 mph 31.1 mph N/A   Clear
6:35 PM 1.4 °F -19.4 °F -9.4 °F 61% 30.41 in 10.0 mi NNW 18.4 mph 25.3 mph N/A   Clear
6:55 PM 1.4 °F -18.8 °F -9.4 °F 61% 30.42 in 10.0 mi NNW 17.3 mph 24.2 mph N/A   Clear
7:15 PM 1.4 °F -18.8 °F -9.4 °F 61% 30.43 in 10.0 mi NNW 17.3 mph 21.9 mph N/A   Clear
7:35 PM -0.4 °F -21.7 °F -9.4 °F 66% 30.45 in 10.0 mi NNW 18.4 mph - N/A   Clear
7:55 PM -0.4 °F -19.9 °F -11.2 °F 60% 30.45 in 10.0 mi NNW 15.0 mph 21.9 mph N/A   Clear
8:15 PM -0.4 °F -20.5 °F -9.4 °F 66% 30.46 in 10.0 mi NNW 16.1 mph - N/A   Clear
8:35 PM -0.4 °F -19.2 °F -11.2 °F 60% 30.47 in 10.0 mi NNW 13.8 mph - N/A   Clear
8:55 PM -0.4 °F -18.4 °F -11.2 °F 60% 30.48 in 10.0 mi NNW 12.7 mph - N/A   Clear
9:15 PM -0.4 °F -19.2 °F -9.4 °F 66% 30.48 in 10.0 mi North 13.8 mph - N/A   Clear
9:35 PM -0.4 °F -17.6 °F -11.2 °F 60% 30.50 in 10.0 mi NNW 11.5 mph - N/A   Clear
9:55 PM -0.4 °F -17.6 °F -9.4 °F 66% 30.50 in 10.0 mi North 11.5 mph - N/A   Clear
10:15 PM -2.2 °F -18.9 °F -9.4 °F 71% 30.52 in 10.0 mi NNW 10.4 mph - N/A   Clear
10:35 PM -2.2 °F -15.6 °F -11.2 °F 66% 30.53 in 10.0 mi NNW 6.9 mph - N/A   Clear
10:55 PM -2.2 °F -16.8 °F -9.4 °F 71% 30.53 in 10.0 mi North 8.1 mph - N/A   Clear
11:15 PM -2.2 °F -18.0 °F -9.4 °F 71% 30.54 in 10.0 mi NNE 9.2 mph - N/A   Clear
11:35 PM -0.4 °F -18.4 °F -11.2 °F 60% 30.55 in 10.0 mi NNE 12.7 mph - N/A   Clear
11:55 PM -2.2 °F -18.9 °F -13.0 °F 60% 30.56 in 10.0 mi NNE 10.4 mph - N/A   Clear